owner,sensor,date,latitude,longitude,vertical_datum,direction_of_sea_water_velocity,sea_water_speed,upward_sea_water_velocity,qcFlag 
TABS,ioos:station:wmo:42049:1,2007-02-01T00:00:00Z,28.3507,-96.0058,2.0,236.9987631,92.00368308,-99999.0,'11111222,11111222,99999999' 
TABS,ioos:station:wmo:42049:1,2007-02-01T00:30:00Z,28.3507,-96.0058,2.0,236.001448,81.99696885,-99999.0,'11111222,11111222,99999999' 
TABS,ioos:station:wmo:42049:1,2007-02-01T01:00:00Z,28.3507,-96.0058,2.0,236.9989087,79.99633117,-99999.0,'11111222,11111222,99999999' 
TABS,ioos:station:wmo:42049:1,2007-02-01T01:30:00Z,28.3507,-96.0058,2.0,232.9979235,92.99824622,-99999.0,'11111222,11111222,99999999' 
TABS,ioos:station:wmo:42049:1,2007-02-01T02:00:00Z,28.3507,-96.0058,2.0,233.0009915,105.0022652,-99999.0,'11111222,11111222,99999999' 
TABS,ioos:station:wmo:42049:1,2007-02-01T02:30:00Z,28.3507,-96.0058,2.0,222.0001915,124.9968068,-99999.0,'11111222,11111222,99999999' 
TABS,ioos:station:wmo:42049:1,2007-02-01T03:00:00Z,28.3507,-96.0058,2.0,227.0003399,126.9960098,-99999.0,'11111222,11111222,99999999' 
TABS,ioos:station:wmo:42049:1,2007-02-01T03:30:00Z,28.3507,-96.0058,2.0,230.9992315,119.0002626,-99999.0,'11111222,11111222,99999999' 
TABS,ioos:station:wmo:42049:1,2007-02-01T04:00:00Z,28.3507,-96.0058,2.0,237.0007148,105.999825,-99999.0,'11111222,11111222,99999999' 
TABS,ioos:station:wmo:42049:1,2007-02-01T04:30:00Z,28.3507,-96.0058,2.0,233.0018758,112.000279,-99999.0,'11111222,11111222,99999999' 
TABS,ioos:station:wmo:42049:1,2007-02-01T05:00:00Z,28.3507,-96.0058,2.0,238.9979515,100.9972539,-99999.0,'11111222,11111222,99999999' 
TABS,ioos:station:wmo:42049:1,2007-02-01T05:30:00Z,28.3507,-96.0058,2.0,233.9979936,117.9975474,-99999.0,'11111222,11111222,99999999' 
TABS,ioos:station:wmo:42049:1,2007-02-01T06:00:00Z,28.3507,-96.0058,2.0,237.0007148,105.999825,-99999.0,'11111222,11111222,99999999' 
TABS,ioos:station:wmo:42049:1,2007-02-01T06:30:00Z,28.3507,-96.0058,2.0,241.999034,98.00184182,-99999.0,'11111222,11111222,99999999' 
TABS,ioos:station:wmo:42049:1,2007-02-01T07:30:00Z,28.3507,-96.0058,2.0,245.9976468,81.0043363,-99999.0,'11111222,11111222,99999999' 
TABS,ioos:station:wmo:42049:1,2007-02-01T08:00:00Z,28.3507,-96.0058,2.0,248.0029397,79.00082658,-99999.0,'11111222,11111222,99999999' 
TABS,ioos:station:wmo:42049:1,2007-02-01T08:30:00Z,28.3507,-96.0058,2.0,248.9996096,78.99695311,-99999.0,'11111222,11111222,99999999' 
TABS,ioos:station:wmo:42049:1,2007-02-01T09:00:00Z,28.3507,-96.0058,2.0,247.9967859,75.00281061,-99999.0,'11111222,11111222,99999999' 
TABS,ioos:station:wmo:42049:1,2007-02-01T09:30:00Z,28.3507,-96.0058,2.0,251.0009958,72.00222219,-99999.0,'11111222,11111222,99999999' 
TABS,ioos:station:wmo:42049:1,2007-02-01T10:00:00Z,28.3507,-96.0058,2.0,249.001132,97.00191338,-99999.0,'11111222,11111222,99999999' 
TABS,ioos:station:wmo:42049:1,2007-02-01T10:30:00Z,28.3507,-96.0058,2.0,251.0022292,95.99872603,-99999.0,'11111222,11111222,99999999' 
TABS,ioos:station:wmo:42049:1,2007-02-01T11:00:00Z,28.3507,-96.0058,2.0,249.000684,95.9953353,-99999.0,'11111222,11111222,99999999' 
TABS,ioos:station:wmo:42049:1,2007-02-01T11:30:00Z,28.3507,-96.0058,2.0,251.0009958,90.00277773,-99999.0,'11111222,11111222,99999999' 
TABS,ioos:station:wmo:42049:1,2007-02-01T12:00:00Z,28.3507,-96.0058,2.0,251.0014713,83.00114939,-99999.0,'11111222,11111222,99999999' 
TABS,ioos:station:wmo:42049:1,2007-02-01T12:30:00Z,28.3507,-96.0058,2.0,250.9979089,85.99602375,-99999.0,'11111222,11111222,99999999' 
TABS,ioos:station:wmo:42049:1,2007-02-01T13:00:00Z,28.3507,-96.0058,2.0,250.9972112,90.99900274,-99999.0,'11111222,11111222,99999999' 
TABS,ioos:station:wmo:42049:1,2007-02-01T13:30:00Z,28.3507,-96.0058,2.0,249.0014435,91.00337192,-99999.0,'11111222,11111222,99999999' 
TABS,ioos:station:wmo:42049:1,2007-02-01T14:30:00Z,28.3507,-96.0058,2.0,242.0014299,108.0000907,-99999.0,'11111222,11111222,99999999' 
TABS,ioos:station:wmo:42049:1,2007-02-01T15:00:00Z,28.3507,-96.0058,2.0,233.9974232,118.9996445,-99999.0,'11111222,11111222,99999999' 
TABS,ioos:station:wmo:42049:1,2007-02-01T16:00:00Z,28.3507,-96.0058,2.0,236.9996041,116.9947554,-99999.0,'11111222,11111222,99999999' 
TABS,ioos:station:wmo:42049:1,2007-02-01T16:30:00Z,28.3507,-96.0058,2.0,235.9986846,115.0021378,-99999.0,'11111222,11111222,99999999' 
TABS,ioos:station:wmo:42049:1,2007-02-01T17:00:00Z,28.3507,-96.0058,2.0,235.9988595,111.9983902,-99999.0,'11111222,11111222,99999999' 
TABS,ioos:station:wmo:42049:1,2007-02-01T17:30:00Z,28.3507,-96.0058,2.0,239.0004416,97.00476329,-99999.0,'11111222,11111222,99999999' 
TABS,ioos:station:wmo:42049:1,2007-02-01T18:00:00Z,28.3507,-96.0058,2.0,254.9974062,60.99910245,-99999.0,'11111222,11111222,99999999' 
TABS,ioos:station:wmo:42049:1,2007-02-01T18:30:00Z,28.3507,-96.0058,2.0,254.9987213,50.9979176,-99999.0,'11111222,11111222,99999999' 
TABS,ioos:station:wmo:42049:1,2007-02-01T19:00:00Z,28.3507,-96.0058,2.0,247.9967631,47.00349455,-99999.0,'11111222,11111222,99999999' 
TABS,ioos:station:wmo:42049:1,2007-02-01T19:30:00Z,28.3507,-96.0058,2.0,260.0030169,66.99714397,-99999.0,'11111222,11111222,99999999' 
TABS,ioos:station:wmo:42049:1,2007-02-01T20:00:00Z,28.3507,-96.0058,2.0,261.0017362,71.99597003,-99999.0,'11111222,11111222,99999999' 
TABS,ioos:station:wmo:42049:1,2007-02-01T20:30:00Z,28.3507,-96.0058,2.0,263.9993841,75.00089133,-99999.0,'11111222,11111222,99999999' 
TABS,ioos:station:wmo:42049:1,2007-02-01T21:00:00Z,28.3507,-96.0058,2.0,263.0029009,71.99614226,-99999.0,'11111222,11111222,99999999' 
TABS,ioos:station:wmo:42049:1,2007-02-01T21:30:00Z,28.3507,-96.0058,2.0,264.0030454,64.9956437,-99999.0,'11111222,11111222,99999999' 
TABS,ioos:station:wmo:42049:1,2007-02-01T22:00:00Z,28.3507,-96.0058,2.0,260.0030169,66.99714397,-99999.0,'11111222,11111222,99999999' 
TABS,ioos:station:wmo:42049:1,2007-02-01T22:30:00Z,28.3507,-96.0058,2.0,254.9949655,62.99792536,-99999.0,'11111222,11111222,99999999' 
TABS,ioos:station:wmo:42049:1,2007-02-01T23:00:00Z,28.3507,-96.0058,2.0,252.0007703,58.99716095,-99999.0,'11111222,11111222,99999999' 
TABS,ioos:station:wmo:42049:1,2007-02-01T23:30:00Z,28.3507,-96.0058,2.0,248.0011313,61.00127949,-99999.0,'11111222,11111222,99999999' 
TABS,ioos:station:wmo:42049:1,2007-02-02T00:00:00Z,28.3507,-96.0058,2.0,254.9957703,52.99674047,-99999.0,'11111222,11111222,99999999' 
TABS,ioos:station:wmo:42049:1,2007-02-02T01:00:00Z,28.3507,-96.0058,2.0,251.9961083,41.99623793,-99999.0,'11111222,11111222,99999999' 
TABS,ioos:station:wmo:42049:1,2007-02-02T01:30:00Z,28.3507,-96.0058,2.0,253.9942545,41.99801543,-99999.0,'11111222,11111222,99999999' 
TABS,ioos:station:wmo:42049:1,2007-02-02T02:00:00Z,28.3507,-96.0058,2.0,251.0029693,39.99840997,-99999.0,'11111222,11111222,99999999' 
TABS,ioos:station:wmo:42049:1,2007-02-02T02:30:00Z,28.3507,-96.0058,2.0,244.9991398,38.00048947,-99999.0,'11111222,11111222,99999999' 
TABS,ioos:station:wmo:42049:1,2007-02-02T03:00:00Z,28.3507,-96.0058,2.0,247.9910242,37.99908552,-99999.0,'11111222,11111222,99999999' 
TABS,ioos:station:wmo:42049:1,2007-02-02T03:30:00Z,28.3507,-96.0058,2.0,236.9968032,40.00508218,-99999.0,'11111222,11111222,99999999' 
TABS,ioos:station:wmo:42049:1,2007-02-02T04:00:00Z,28.3507,-96.0058,2.0,241.9996156,40.00238493,-99999.0,'11111222,11111222,99999999' 
TABS,ioos:station:wmo:42049:1,2007-02-02T04:30:00Z,28.3507,-96.0058,2.0,238.9970505,43.00328011,-99999.0,'11111222,11111222,99999999' 
TABS,ioos:station:wmo:42049:1,2007-02-02T05:00:00Z,28.3507,-96.0058,2.0,239.0039617,40.0020512,-99999.0,'11111222,11111222,99999999' 
TABS,ioos:station:wmo:42049:1,2007-02-02T05:30:00Z,28.3507,-96.0058,2.0,241.9970305,41.00003049,-99999.0,'11111222,11111222,99999999' 
TABS,ioos:station:wmo:42049:1,2007-02-02T06:00:00Z,28.3507,-96.0058,2.0,247.9990698,38.99997051,-99999.0,'11111222,11111222,99999999' 
TABS,ioos:station:wmo:42049:1,2007-02-02T06:30:00Z,28.3507,-96.0058,2.0,248.9976963,36.99782696,-99999.0,'11111222,11111222,99999999' 
TABS,ioos:station:wmo:42049:1,2007-02-02T07:00:00Z,28.3507,-96.0058,2.0,247.9990698,38.99997051,-99999.0,'11111222,11111222,99999999' 
TABS,ioos:station:wmo:42049:1,2007-02-02T07:30:00Z,28.3507,-96.0058,2.0,242.9983372,37.00352551,-99999.0,'11111222,11111222,99999999' 
TABS,ioos:station:wmo:42049:1,2007-02-02T08:00:00Z,28.3507,-96.0058,2.0,238.995585,39.00221789,-99999.0,'11111222,11111222,99999999' 
TABS,ioos:station:wmo:42049:1,2007-02-02T08:30:00Z,28.3507,-96.0058,2.0,223.9922959,37.00154591,-99999.0,'11111222,11111222,99999999' 
TABS,ioos:station:wmo:42049:1,2007-02-02T09:00:00Z,28.3507,-96.0058,2.0,224.9996843,33.99769404,-99999.0,'11111222,11111222,99999999' 
TABS,ioos:station:wmo:42049:1,2007-02-02T09:30:00Z,28.3507,-96.0058,2.0,242.0080473,29.99944166,-99999.0,'11111222,11111222,99999999' 
TABS,ioos:station:wmo:42049:1,2007-02-02T10:00:00Z,28.3507,-96.0058,2.0,254.9943768,35.99743463,-99999.0,'11111222,11111222,99999999' 
TABS,ioos:station:wmo:42049:1,2007-02-02T10:30:00Z,28.3507,-96.0058,2.0,255.004535,40.00215119,-99999.0,'11111222,11111222,99999999' 
TABS,ioos:station:wmo:42049:1,2007-02-02T11:00:00Z,28.3507,-96.0058,2.0,239.9973728,36.99745397,-99999.0,'11111222,11111222,99999999' 
TABS,ioos:station:wmo:42049:1,2007-02-02T11:30:00Z,28.3507,-96.0058,2.0,243.0075496,36.0016944,-99999.0,'11111222,11111222,99999999' 
TABS,ioos:station:wmo:42049:1,2007-02-02T12:00:00Z,28.3507,-96.0058,2.0,238.995585,39.00221789,-99999.0,'11111222,11111222,99999999' 
TABS,ioos:station:wmo:42049:1,2007-02-02T12:30:00Z,28.3507,-96.0058,2.0,234.0031791,45.00322877,-99999.0,'11111222,11111222,99999999' 
TABS,ioos:station:wmo:42049:1,2007-02-02T13:00:00Z,28.3507,-96.0058,2.0,232.9981266,47.00612407,-99999.0,'11111222,11111222,99999999' 
TABS,ioos:station:wmo:42049:1,2007-02-02T13:30:00Z,28.3507,-96.0058,2.0,230.0027903,50.99993431,-99999.0,'11111222,11111222,99999999' 
TABS,ioos:station:wmo:42049:1,2007-02-02T14:00:00Z,28.3507,-96.0058,2.0,233.9979936,58.99877372,-99999.0,'11111222,11111222,99999999' 
TABS,ioos:station:wmo:42049:1,2007-02-02T14:30:00Z,28.3507,-96.0058,2.0,231.0011024,69.99830355,-99999.0,'11111222,11111222,99999999' 
TABS,ioos:station:wmo:42049:1,2007-02-02T15:00:00Z,28.3507,-96.0058,2.0,239.0008002,69.99716066,-99999.0,'11111222,11111222,99999999' 
TABS,ioos:station:wmo:42049:1,2007-02-02T15:30:00Z,28.3507,-96.0058,2.0,236.9988715,77.00350641,-99999.0,'11111222,11111222,99999999' 
TABS,ioos:station:wmo:42049:1,2007-02-02T16:00:00Z,28.3507,-96.0058,2.0,239.0018811,77.99928525,-99999.0,'11111222,11111222,99999999' 
TABS,ioos:station:wmo:42049:1,2007-02-02T16:30:00Z,28.3507,-96.0058,2.0,235.9957427,80.0000625,-99999.0,'11111222,11111222,99999999' 
TABS,ioos:station:wmo:42049:1,2007-02-02T17:00:00Z,28.3507,-96.0058,2.0,239.0008002,83.99659279,-99999.0,'11111222,11111222,99999999' 
TABS,ioos:station:wmo:42049:1,2007-02-02T17:30:00Z,28.3507,-96.0058,2.0,242.9992775,82.9962945,-99999.0,'11111222,11111222,99999999' 
TABS,ioos:station:wmo:42049:1,2007-02-02T18:00:00Z,28.3507,-96.0058,2.0,243.0007389,88.00074204,-99999.0,'11111222,11111222,99999999' 
TABS,ioos:station:wmo:42049:1,2007-02-02T18:30:00Z,28.3507,-96.0058,2.0,242.9992775,82.9962945,-99999.0,'11111222,11111222,99999999' 
TABS,ioos:station:wmo:42049:1,2007-02-02T19:00:00Z,28.3507,-96.0058,2.0,244.9996388,84.00016012,-99999.0,'11111222,11111222,99999999' 
TABS,ioos:station:wmo:42049:1,2007-02-02T19:30:00Z,28.3507,-96.0058,2.0,245.0006923,80.99827776,-99999.0,'11111222,11111222,99999999' 
TABS,ioos:station:wmo:42049:1,2007-02-02T20:00:00Z,28.3507,-96.0058,2.0,243.0011875,80.99717156,-99999.0,'11111222,11111222,99999999' 
TABS,ioos:station:wmo:42049:1,2007-02-02T20:30:00Z,28.3507,-96.0058,2.0,244.9969235,82.99792046,-99999.0,'11111222,11111222,99999999' 
TABS,ioos:station:wmo:42049:1,2007-02-02T21:00:00Z,28.3507,-96.0058,2.0,244.998658,87.0020425,-99999.0,'11111222,11111222,99999999' 
TABS,ioos:station:wmo:42049:1,2007-02-02T21:30:00Z,28.3507,-96.0058,2.0,245.0010237,88.99745895,-99999.0,'11111222,11111222,99999999' 
TABS,ioos:station:wmo:42049:1,2007-02-02T22:00:00Z,28.3507,-96.0058,2.0,245.0006923,80.99827776,-99999.0,'11111222,11111222,99999999' 
TABS,ioos:station:wmo:42049:1,2007-02-02T22:30:00Z,28.3507,-96.0058,2.0,245.0034277,82.00051768,-99999.0,'11111222,11111222,99999999' 
TABS,ioos:station:wmo:42049:1,2007-02-02T23:00:00Z,28.3507,-96.0058,2.0,239.9989215,84.99812998,-99999.0,'11111222,11111222,99999999' 
TABS,ioos:station:wmo:42049:1,2007-02-02T23:30:00Z,28.3507,-96.0058,2.0,246.0012851,73.00035753,-99999.0,'11111222,11111222,99999999' 
TABS,ioos:station:wmo:42049:1,2007-02-03T00:00:00Z,28.3507,-96.0058,2.0,245.9978581,76.99777919,-99999.0,'11111222,11111222,99999999' 
TABS,ioos:station:wmo:42049:1,2007-02-03T00:30:00Z,28.3507,-96.0058,2.0,249.0005549,61.00132867,-99999.0,'11111222,11111222,99999999' 
TABS,ioos:station:wmo:42049:1,2007-02-03T01:00:00Z,28.3507,-96.0058,2.0,247.9956243,72.99729379,-99999.0,'11111222,11111222,99999999' 
TABS,ioos:station:wmo:42049:1,2007-02-03T01:30:00Z,28.3507,-96.0058,2.0,244.9971671,71.99685688,-99999.0,'11111222,11111222,99999999' 
TABS,ioos:station:wmo:42049:1,2007-02-03T02:00:00Z,28.3507,-96.0058,2.0,242.0006263,88.99654375,-99999.0,'11111222,11111222,99999999' 
TABS,ioos:station:wmo:42049:1,2007-02-03T02:30:00Z,28.3507,-96.0058,2.0,245.0018268,77.99639543,-99999.0,'11111222,11111222,99999999' 
TABS,ioos:station:wmo:42049:1,2007-02-03T03:00:00Z,28.3507,-96.0058,2.0,245.0033248,74.00133647,-99999.0,'11111222,11111222,99999999' 
TABS,ioos:station:wmo:42049:1,2007-02-03T03:30:00Z,28.3507,-96.0058,2.0,248.002641,68.00017206,-99999.0,'11111222,11111222,99999999' 
TABS,ioos:station:wmo:42049:1,2007-02-03T04:00:00Z,28.3507,-96.0058,2.0,245.0018055,69.00403756,-99999.0,'11111222,11111222,99999999' 
TABS,ioos:station:wmo:42049:1,2007-02-03T17:00:00Z,28.3507,-96.0058,2.0,251.7754769,71.33830458,-99999.0,'11111222,11111222,99999999' 
TABS,ioos:station:wmo:42049:1,2007-02-03T17:30:00Z,28.3507,-96.0058,2.0,251.8377624,64.35624368,-99999.0,'11111222,11111222,99999999' 
TABS,ioos:station:wmo:42049:1,2007-02-03T18:00:00Z,28.3507,-96.0058,2.0,258.0029122,68.55731981,-99999.0,'11111222,11111222,99999999' 
TABS,ioos:station:wmo:42049:1,2007-02-03T18:30:00Z,28.3507,-96.0058,2.0,262.0846908,65.14055035,-99999.0,'11111222,11111222,99999999' 
TABS,ioos:station:wmo:42049:1,2007-02-03T19:00:00Z,28.3507,-96.0058,2.0,260.2187851,61.21984074,-99999.0,'11111222,11111222,99999999' 
TABS,ioos:station:wmo:42049:1,2007-02-03T19:30:00Z,28.3507,-96.0058,2.0,257.1692779,53.58798839,-99999.0,'11111222,11111222,99999999' 
TABS,ioos:station:wmo:42049:1,2007-02-03T20:00:00Z,28.3507,-96.0058,2.0,258.2917024,68.89333785,-99999.0,'11111222,11111222,99999999' 
TABS,ioos:station:wmo:42049:1,2007-02-03T20:30:00Z,28.3507,-96.0058,2.0,259.6282885,57.82475681,-99999.0,'11111222,11111222,99999999' 
TABS,ioos:station:wmo:42049:1,2007-02-03T21:00:00Z,28.3507,-96.0058,2.0,261.6230709,53.26826072,-99999.0,'11111222,11111222,99999999' 
TABS,ioos:station:wmo:42049:1,2007-02-03T21:30:00Z,28.3507,-96.0058,2.0,256.6129281,54.76806369,-99999.0,'11111222,11111222,99999999' 
TABS,ioos:station:wmo:42049:1,2007-02-03T22:00:00Z,28.3507,-96.0058,2.0,255.8338138,55.77606028,-99999.0,'11111222,11111222,99999999' 
TABS,ioos:station:wmo:42049:1,2007-02-03T22:30:00Z,28.3507,-96.0058,2.0,252.5789592,51.80622549,-99999.0,'11111222,11111222,99999999' 
TABS,ioos:station:wmo:42049:1,2007-02-03T23:00:00Z,28.3507,-96.0058,2.0,255.2600707,50.78108408,-99999.0,'11111222,11111222,99999999' 
TABS,ioos:station:wmo:42049:1,2007-02-03T23:30:00Z,28.3507,-96.0058,2.0,249.3873418,51.27224005,-99999.0,'11111222,11111222,99999999' 
TABS,ioos:station:wmo:42049:1,2007-02-04T00:00:00Z,28.3507,-96.0058,2.0,244.1981002,53.02635194,-99999.0,'11111222,11111222,99999999' 
TABS,ioos:station:wmo:42049:1,2007-02-04T00:30:00Z,28.3507,-96.0058,2.0,236.5962382,55.4374314,-99999.0,'11111222,11111222,99999999' 
TABS,ioos:station:wmo:42049:1,2007-02-04T01:00:00Z,28.3507,-96.0058,2.0,243.4608986,58.43740668,-99999.0,'11111222,11111222,99999999' 
TABS,ioos:station:wmo:42049:1,2007-02-04T01:30:00Z,28.3507,-96.0058,2.0,247.2151892,57.04100455,-99999.0,'11111222,11111222,99999999' 
TABS,ioos:station:wmo:42049:1,2007-02-04T02:00:00Z,28.3507,-96.0058,2.0,244.5437236,66.30736686,-99999.0,'11111222,11111222,99999999' 
TABS,ioos:station:wmo:42049:1,2007-02-04T02:30:00Z,28.3507,-96.0058,2.0,247.325779,80.00311244,-99999.0,'11111222,11111222,99999999' 
TABS,ioos:station:wmo:42049:1,2007-02-04T03:00:00Z,28.3507,-96.0058,2.0,249.4814796,83.16594616,-99999.0,'11111222,11111222,99999999' 
TABS,ioos:station:wmo:42049:1,2007-02-04T03:30:00Z,28.3507,-96.0058,2.0,252.7168538,86.33814974,-99999.0,'11111222,11111222,99999999' 
TABS,ioos:station:wmo:42049:1,2007-02-04T04:00:00Z,28.3507,-96.0058,2.0,249.0237348,85.45286537,-99999.0,'11111222,11111222,99999999' 
TABS,ioos:station:wmo:42049:1,2007-02-04T04:30:00Z,28.3507,-96.0058,2.0,249.4367283,88.06058937,-99999.0,'11111222,11111222,99999999' 
TABS,ioos:station:wmo:42049:1,2007-02-04T05:00:00Z,28.3507,-96.0058,2.0,249.641734,91.03631913,-99999.0,'11111222,11111222,99999999' 
TABS,ioos:station:wmo:42049:1,2007-02-04T05:30:00Z,28.3507,-96.0058,2.0,250.6442088,93.89697812,-99999.0,'11111222,11111222,99999999' 
TABS,ioos:station:wmo:42049:1,2007-02-04T06:00:00Z,28.3507,-96.0058,2.0,249.2882665,92.82918614,-99999.0,'11111222,11111222,99999999' 
TABS,ioos:station:wmo:42049:1,2007-02-04T06:30:00Z,28.3507,-96.0058,2.0,247.2217892,92.623429,-99999.0,'11111222,11111222,99999999' 
TABS,ioos:station:wmo:42049:1,2007-02-04T07:00:00Z,28.3507,-96.0058,2.0,248.0782816,90.48210873,-99999.0,'11111222,11111222,99999999' 
TABS,ioos:station:wmo:42049:1,2007-02-04T07:30:00Z,28.3507,-96.0058,2.0,246.9017238,92.65784047,-99999.0,'11111222,11111222,99999999' 
TABS,ioos:station:wmo:42049:1,2007-02-04T08:00:00Z,28.3507,-96.0058,2.0,242.1932597,89.79920378,-99999.0,'11111222,11111222,99999999' 
TABS,ioos:station:wmo:42049:1,2007-02-04T08:30:00Z,28.3507,-96.0058,2.0,237.9976026,91.14073787,-99999.0,'11111222,11111222,99999999' 
TABS,ioos:station:wmo:42049:1,2007-02-04T09:00:00Z,28.3507,-96.0058,2.0,237.2469814,92.73332195,-99999.0,'11111222,11111222,99999999' 
TABS,ioos:station:wmo:42049:1,2007-02-04T09:30:00Z,28.3507,-96.0058,2.0,234.8542743,94.57083324,-99999.0,'11111222,11111222,99999999' 
TABS,ioos:station:wmo:42049:1,2007-02-04T10:00:00Z,28.3507,-96.0058,2.0,233.3927263,96.30701428,-99999.0,'11111222,11111222,99999999' 
TABS,ioos:station:wmo:42049:1,2007-02-04T10:30:00Z,28.3507,-96.0058,2.0,231.5908482,95.54646252,-99999.0,'11111222,11111222,99999999' 
TABS,ioos:station:wmo:42049:1,2007-02-04T11:00:00Z,28.3507,-96.0058,2.0,229.5813476,108.3497236,-99999.0,'11111222,11111222,99999999' 
TABS,ioos:station:wmo:42049:1,2007-02-04T11:30:00Z,28.3507,-96.0058,2.0,226.9483644,101.0615783,-99999.0,'11111222,11111222,99999999' 
TABS,ioos:station:wmo:42049:1,2007-02-04T12:00:00Z,28.3507,-96.0058,2.0,228.7073856,109.4558838,-99999.0,'11111222,11111222,99999999' 
TABS,ioos:station:wmo:42049:1,2007-02-04T12:30:00Z,28.3507,-96.0058,2.0,225.9413857,111.0024729,-99999.0,'11111222,11111222,99999999' 
TABS,ioos:station:wmo:42049:1,2007-02-04T13:00:00Z,28.3507,-96.0058,2.0,225.8632652,114.0056336,-99999.0,'11111222,11111222,99999999' 
TABS,ioos:station:wmo:42049:1,2007-02-04T13:30:00Z,28.3507,-96.0058,2.0,227.9086504,102.9672205,-99999.0,'11111222,11111222,99999999' 
TABS,ioos:station:wmo:42049:1,2007-02-04T14:00:00Z,28.3507,-96.0058,2.0,230.9938264,95.67847668,-99999.0,'11111222,11111222,99999999' 
TABS,ioos:station:wmo:42049:1,2007-02-04T14:30:00Z,28.3507,-96.0058,2.0,227.6379773,96.77822172,-99999.0,'11111222,11111222,99999999' 
TABS,ioos:station:wmo:42049:1,2007-02-04T15:00:00Z,28.3507,-96.0058,2.0,231.6847559,82.24415481,-99999.0,'11111222,11111222,99999999' 
TABS,ioos:station:wmo:42049:1,2007-02-04T15:30:00Z,28.3507,-96.0058,2.0,238.0378517,72.46571603,-99999.0,'11111222,11111222,99999999' 
TABS,ioos:station:wmo:42049:1,2007-02-04T16:00:00Z,28.3507,-96.0058,2.0,238.5945675,65.45952184,-99999.0,'11111222,11111222,99999999' 
TABS,ioos:station:wmo:42049:1,2007-02-04T16:30:00Z,28.3507,-96.0058,2.0,239.3484108,63.8275779,-99999.0,'11111222,11111222,99999999' 
TABS,ioos:station:wmo:42049:1,2007-02-04T17:00:00Z,28.3507,-96.0058,2.0,237.5740375,64.60224841,-99999.0,'11111222,11111222,99999999' 
TABS,ioos:station:wmo:42049:1,2007-02-04T17:30:00Z,28.3507,-96.0058,2.0,246.7904541,49.73493842,-99999.0,'11111222,11111222,99999999' 
TABS,ioos:station:wmo:42049:1,2007-02-04T18:00:00Z,28.3507,-96.0058,2.0,255.9221943,37.12493771,-99999.0,'11111222,11111222,99999999' 
TABS,ioos:station:wmo:42049:1,2007-02-04T18:30:00Z,28.3507,-96.0058,2.0,260.8121925,29.12361585,-99999.0,'11111222,11111222,99999999' 
TABS,ioos:station:wmo:42049:1,2007-02-04T19:00:00Z,28.3507,-96.0058,2.0,259.9175118,33.58867815,-99999.0,'11111222,11111222,99999999' 
TABS,ioos:station:wmo:42049:1,2007-02-04T19:30:00Z,28.3507,-96.0058,2.0,256.6568751,36.26900881,-99999.0,'11111222,11111222,99999999' 
TABS,ioos:station:wmo:42049:1,2007-02-04T20:00:00Z,28.3507,-96.0058,2.0,258.8444421,47.19159777,-99999.0,'11111222,11111222,99999999' 
TABS,ioos:station:wmo:42049:1,2007-02-04T20:30:00Z,28.3507,-96.0058,2.0,259.8165553,47.96555535,-99999.0,'11111222,11111222,99999999' 
TABS,ioos:station:wmo:42049:1,2007-02-04T21:00:00Z,28.3507,-96.0058,2.0,256.7565709,39.06895699,-99999.0,'11111222,11111222,99999999' 
TABS,ioos:station:wmo:42049:1,2007-02-04T21:30:00Z,28.3507,-96.0058,2.0,249.9999977,35.5540954,-99999.0,'11111222,11111222,99999999' 
TABS,ioos:station:wmo:42049:1,2007-02-04T22:00:00Z,28.3507,-96.0058,2.0,253.0070191,42.84029995,-99999.0,'11111222,11111222,99999999' 
TABS,ioos:station:wmo:42049:1,2007-02-04T22:30:00Z,28.3507,-96.0058,2.0,259.624702,50.4752474,-99999.0,'11111222,11111222,99999999' 
TABS,ioos:station:wmo:42049:1,2007-02-04T23:00:00Z,28.3507,-96.0058,2.0,255.8482519,47.0786852,-99999.0,'11111222,11111222,99999999' 
TABS,ioos:station:wmo:42049:1,2007-02-04T23:30:00Z,28.3507,-96.0058,2.0,254.5783108,44.45036445,-99999.0,'11111222,11111222,99999999' 
TABS,ioos:station:wmo:42049:1,2007-02-05T00:00:00Z,28.3507,-96.0058,2.0,255.4451942,50.41794224,-99999.0,'11111222,11111222,99999999' 
TABS,ioos:station:wmo:42049:1,2007-02-05T00:30:00Z,28.3507,-96.0058,2.0,257.5383321,45.09228094,-99999.0,'11111222,11111222,99999999' 
TABS,ioos:station:wmo:42049:1,2007-02-05T01:00:00Z,28.3507,-96.0058,2.0,259.2159404,42.27657744,-99999.0,'11111222,11111222,99999999' 
TABS,ioos:station:wmo:42049:1,2007-02-05T01:30:00Z,28.3507,-96.0058,2.0,252.3952288,43.41314663,-99999.0,'11111222,11111222,99999999' 
TABS,ioos:station:wmo:42049:1,2007-02-05T02:00:00Z,28.3507,-96.0058,2.0,252.250056,35.6888568,-99999.0,'11111222,11111222,99999999' 
TABS,ioos:station:wmo:42049:1,2007-02-05T02:30:00Z,28.3507,-96.0058,2.0,238.123396,31.98339726,-99999.0,'11111222,11111222,99999999' 
TABS,ioos:station:wmo:42049:1,2007-02-05T03:00:00Z,28.3507,-96.0058,2.0,237.4337096,38.02924401,-99999.0,'11111222,11111222,99999999' 
TABS,ioos:station:wmo:42049:1,2007-02-05T03:30:00Z,28.3507,-96.0058,2.0,250.5175647,61.25722325,-99999.0,'11111222,11111222,99999999' 
TABS,ioos:station:wmo:42049:1,2007-02-05T04:00:00Z,28.3507,-96.0058,2.0,251.2927112,65.28912007,-99999.0,'11111222,11111222,99999999' 
TABS,ioos:station:wmo:42049:1,2007-02-05T04:30:00Z,28.3507,-96.0058,2.0,242.8622359,70.28759563,-99999.0,'11111222,11111222,99999999' 
TABS,ioos:station:wmo:42049:1,2007-02-05T05:00:00Z,28.3507,-96.0058,2.0,237.259762,73.75753317,-99999.0,'11111222,11111222,99999999' 
TABS,ioos:station:wmo:42049:1,2007-02-05T05:30:00Z,28.3507,-96.0058,2.0,233.5279634,73.09576527,-99999.0,'11111222,11111222,99999999' 
TABS,ioos:station:wmo:42049:1,2007-02-05T06:00:00Z,28.3507,-96.0058,2.0,227.6061355,75.56889969,-99999.0,'11111222,11111222,99999999' 
TABS,ioos:station:wmo:42049:1,2007-02-05T06:30:00Z,28.3507,-96.0058,2.0,229.7982775,75.06085131,-99999.0,'11111222,11111222,99999999' 